Stations météo

Publicité
Chartres, France (7143): Température de l'air & dewpoint: 29.03.2020 01:00:00 - 04.04.2020 01:00:00 (CEST)Chartres, France (7143): Température de l'air 5cm: 29.03.2020 01:00:00 - 04.04.2020 01:00:00 (CEST)Chartres, France (7143): Température de l'air -20cm & Température de l'air -100cm: 29.03.2020 01:00:00 - 04.04.2020 01:00:00 (CEST)Chartres, France (7143): Vitesse du vent & gusts: 29.03.2020 01:00:00 - 04.04.2020 01:00:00 (CEST)Chartres, France (7143): Direction du vent: 29.03.2020 01:00:00 - 04.04.2020 01:00:00 (CEST)Chartres, France (7143): reduced air pressure: 29.03.2020 01:00:00 - 04.04.2020 01:00:00 (CEST)Chartres, France (7143): visibility: 29.03.2020 01:00:00 - 04.04.2020 01:00:00 (CEST)Chartres, France (7143): Ensoleillement: 29.03.2020 01:00:00 - 04.04.2020 01:00:00 (CEST)Chartres, France (7143): Quantités de précipitations: 29.03.2020 01:00:00 - 04.04.2020 01:00:00 (CEST)
Date & Time tt [°C] td [°C] tt 5cm [°C] tt -20cm [°C] tt -100cm [°C] ff [km/h] ff [knt] fx [km/h] fx [knt] dd ppp [hPa] vv [km] sd [min] rr [mm]
04.04.2020 01:00:00 6,5 4,2 1,7 9,5 9,7 6 3 9 5 NNW 1021,3 20 0 0,0
04.04.2020 00:00:00 7,4 5,0 2,9 9,5 9,7 4 2 6 3 NNW 1021,0 20 0 0,0
03.04.2020 23:00:00 8,5 4,5 5,4 9,5 9,7 0 0 6 3 N 1020,8 20 0 0,0
03.04.2020 22:00:00 9,2 5,2 6,0 9,5 9,7 0 0 6 4 N 1020,6 20 0 0,0
03.04.2020 21:00:00 9,9 5,7 7,5 9,5 9,7 3 2 9 5 N 1020,1 20 0 0,0
03.04.2020 20:00:00 10,9 5,6 9,9 9,5 9,7 4 2 14 8 NNW 1019,6 20 0 0,0
03.04.2020 19:00:00 11,4 5,7 11,2 9,4 9,6 11 6 24 13 NW 1019,6 20 0 0,0
03.04.2020 18:00:00 12,9 5,3 13,1 9,3 9,7 5 3 14 8 W 1019,2 20 0 0,0
03.04.2020 17:00:00 12,5 5,9 12,8 9,2 9,7 7 4 17 9 W 1019,1 20 0 0,0
03.04.2020 16:00:00 13,4 6,0 13,5 9,1 9,7 5 3 16 8 WSW 1019,2 20 5 0,0
03.04.2020 15:00:00 12,5 5,6 13,9 9,0 9,7 6 4 14 7 WSW 1019,3 20 1 0,0
03.04.2020 14:00:00 12,7 6,3 15,9 8,9 9,7 4 2 16 9 WSW 1019,4 20 0 0,0
03.04.2020 13:00:00 12,2 6,5 14,8 8,8 9,7 7 4 14 8 NW 1019,4 17 0 0,0
03.04.2020 12:00:00 11,0 7,3 11,2 8,7 9,7 6 3 13 7 NW 1019,5 15 0 0,0
03.04.2020 11:00:00 9,5 6,9 9,9 8,7 9,7 7 4 19 10 N 1019,3 12 0 0,0
03.04.2020 10:00:00 8,7 6,7 8,1 8,7 9,7 8 4 15 8 NNW 1018,6 14 0 0,0
03.04.2020 09:00:00 7,5 6,1 6,4 8,7 9,7 5 3 11 6 NW 1018,6 13 0 0,0
03.04.2020 08:00:00 6,8 5,6 5,8 8,7 9,7 4 2 13 7 NNW 1018,2 12 0 0,0
03.04.2020 07:00:00 7,0 5,5 5,9 8,7 9,7 7 4 14 8 NW 1017,7 12 0 0,0
03.04.2020 06:00:00 7,0 5,5 5,9 8,7 9,7 5 3 11 6 NW 1017,3 16 0 0,0
03.04.2020 05:00:00 6,6 4,6 5,9 8,8 9,7 4 2 12 7 WNW 1017,2 19 0 0,0
03.04.2020 04:00:00 6,5 4,2 5,0 8,8 9,7 6 3 16 9 W 1017,1 20 0 0,0
03.04.2020 03:00:00 5,7 3,2 3,0 8,9 9,7 7 4 12 7 W 1017,1 20 0 0,0
03.04.2020 02:00:00 6,0 2,5 4,3 8,9 9,7 6 3 13 7 WSW 1017,3 20 0 0,0
03.04.2020 01:00:00 6,1 2,9 1,7 8,9 9,7 5 3 8 5 WSW 1017,5 20 0 0,0
03.04.2020 00:00:00 5,0 1,8 0,4 8,9 9,7 2 1 8 5 SW 1017,7 20 0 0,0
02.04.2020 23:00:00 6,7 2,2 3,3 9,0 9,7 4 2 9 5 NW 1017,7 20 0 0,0
02.04.2020 22:00:00 6,9 1,8 3,1 9,0 9,7 4 2 13 7 NW 1017,5 20 0 0,0
02.04.2020 21:00:00 8,2 2,0 7,6 8,9 9,7 6 4 20 11 NW 1016,9 20 0 0,0
02.04.2020 20:00:00 8,6 0,3 8,0 8,9 9,7 9 5 21 12 NW 1016,6 20 0 0,0
02.04.2020 19:00:00 8,9 0,3 9,1 8,8 9,7 10 5 22 12 NNW 1016,5 20 5 0,0
02.04.2020 18:00:00 8,9 0,6 9,8 8,7 9,7 11 6 23 13 NNW 1016,4 20 0 0,0
02.04.2020 17:00:00 8,9 -0,4 11,2 8,6 9,7 13 7 26 14 N 1016,6 20 9 0,0
02.04.2020 16:00:00 9,3 -1,2 12,7 8,5 9,7 11 6 32 17 NNW 1016,9 19 31 0,0
02.04.2020 15:00:00 9,5 -1,3 11,9 8,4 9,7 14 7 31 17 N 1016,9 20 36 0,0
02.04.2020 14:00:00 8,4 -1,4 11,7 8,2 9,7 12 7 27 15 NNW 1017,3 20 30 0,0
02.04.2020 13:00:00 9,2 -1,8 11,6 8,2 9,7 11 6 26 14 NNW 1017,5 19 43 0,0
02.04.2020 12:00:00 8,8 -0,8 12,3 8,2 9,7 12 7 23 13 NNE 1017,9 20 60 0,0
02.04.2020 11:00:00 7,1 -0,9 7,9 8,2 9,7 10 6 22 12 NNE 1018,1 20 60 0,0
02.04.2020 10:00:00 4,7 0,1 1,7 8,2 9,7 11 6 20 11 N 1018,0 20 60 0,0
02.04.2020 09:00:00 1,8 -1,1 -2,3 8,4 9,7 9 5 16 9 N 1018,0 17 60 0,0
02.04.2020 08:00:00 -0,6 -2,2 -2,8 8,4 9,7 6 3 12 7 NNW 1018,0 14 5 0,0
02.04.2020 07:00:00 -0,6 -2,2 -2,3 8,5 9,7 7 4 13 7 NNW 1017,9 13 0 0,0
02.04.2020 06:00:00 0,1 -1,8 -2,1 8,6 9,7 6 4 14 8 NNW 1017,7 14 0 0,0
02.04.2020 05:00:00 0,5 -1,7 -1,2 8,6 9,7 8 4 13 7 N 1017,9 14 0 0,0
02.04.2020 04:00:00 0,8 -1,6 -2,0 8,7 9,7 8 4 14 7 N 1018,1 14 0 0,0
02.04.2020 03:00:00 1,4 -1,3 -1,2 8,7 9,7 7 4 13 7 N 1018,4 15 0 0,0
02.04.2020 02:00:00 2,4 -1,4 0,2 8,8 9,7 8 5 16 9 N 1018,4 17 0 0,0
02.04.2020 01:00:00 3,1 -2,6 0,6 8,8 9,7 11 6 17 9 N 1018,6 19 0 0,0
02.04.2020 00:00:00 3,8 -3,9 -1,5 8,9 9,7 8 5 14 8 N 1018,6 20 0 0,0
01.04.2020 23:00:00 5,2 -4,1 2,3 8,9 9,7 7 4 16 9 NNE 1018,4 20 0 0,0
01.04.2020 22:00:00 6,5 -4,0 4,0 8,9 9,7 9 5 15 8 NNE 1018,1 20 0 0,0
01.04.2020 21:00:00 7,9 -3,0 4,4 8,9 9,7 8 4 18 10 N 1017,8 20 1 0,0
01.04.2020 20:00:00 10,1 -3,3 8,0 8,9 9,8 10 6 27 14 N 1017,5 20 46 0,0
01.04.2020 19:00:00 11,5 -3,8 14,3 8,8 9,7 15 8 29 16 N 1017,6 20 60 0,0
01.04.2020 18:00:00 12,3 -4,4 18,4 8,6 9,7 12 6 28 15 N 1017,7 20 60 0,0
01.04.2020 17:00:00 12,5 -3,8 19,8 8,5 9,7 16 8 27 15 NNE 1018,0 19 60 0,0
01.04.2020 16:00:00 12,5 -3,8 20,1 8,4 9,7 11 6 26 14 E 1018,5 19 60 0,0
01.04.2020 15:00:00 11,9 -3,9 19,3 8,2 9,7 10 5 27 14 ENE 1019,2 19 60 0,0
01.04.2020 14:00:00 10,7 -3,8 18,7 8,1 9,7 12 7 27 14 NE 1020,1 20 60 0,0
01.04.2020 13:00:00 10,1 -4,0 17,3 8,1 9,7 12 7 26 14 ENE 1020,9 19 60 0,0
01.04.2020 12:00:00 9,4 -3,5 14,6 8,0 9,7 13 7 24 13 E 1021,7 20 60 0,0
01.04.2020 11:00:00 7,7 -3,8 8,5 8,0 9,7 10 6 20 11 ENE 1022,2 20 60 0,0
01.04.2020 10:00:00 5,4 -2,4 1,4 8,1 9,7 8 4 15 8 ENE 1022,7 19 60 0,0
01.04.2020 09:00:00 1,9 -3,2 -2,0 8,2 9,8 8 4 15 8 NNE 1022,8 18 60 0,0
01.04.2020 08:00:00 -0,3 -3,7 -2,1 8,2 9,8 7 4 14 8 N 1022,9 15 3 0,0
01.04.2020 07:00:00 -0,3 -3,7 -1,5 8,3 9,7 9 5 17 9 NNE 1022,7 15 0 0,0
01.04.2020 06:00:00 0,2 -3,4 -2,0 8,4 9,7 10 6 15 8 NNE 1022,7 16 0 0,0
01.04.2020 05:00:00 0,2 -3,2 -1,8 8,4 9,8 7 4 15 8 NNE 1023,1 14 0 0,0
01.04.2020 04:00:00 0,9 -2,9 -0,9 8,5 9,8 11 6 14 8 NNE 1023,4 14 0 0,0
01.04.2020 03:00:00 1,8 -2,2 -0,1 8,5 9,8 10 5 15 8 NNE 1023,7 13 0 0,0
01.04.2020 02:00:00 2,3 -1,5 0,6 8,6 9,8 8 5 16 8 NNE 1024,0 13 0 0,0
01.04.2020 01:00:00 3,3 -0,7 1,9 8,6 9,8 10 6 16 9 NNE 1024,3 14 0 0,0
01.04.2020 00:00:00 4,6 -0,6 3,0 8,6 9,8 11 6 21 11 NNE 1024,6 16 0 0,0
31.03.2020 23:00:00 5,4 -1,8 3,7 8,6 9,8 13 7 22 12 NNE 1024,6 20 0 0,0
31.03.2020 22:00:00 6,0 -1,9 3,9 8,6 9,8 10 6 21 11 NNE 1024,7 20 0 0,0
31.03.2020 21:00:00 7,8 -2,3 4,9 8,6 9,8 7 4 22 12 NE 1024,3 20 0 0,0
31.03.2020 20:00:00 9,7 -2,0 7,4 8,5 9,8 10 5 30 16 ENE 1023,8 20 41 0,0
31.03.2020 19:00:00 10,9 -2,5 12,3 8,5 9,8 16 9 39 21 ENE 1023,6 20 60 0,0
31.03.2020 18:00:00 11,3 -1,5 15,9 8,4 9,8 16 9 39 21 ENE 1023,6 20 60 0,0
31.03.2020 17:00:00 11,7 -0,8 17,0 8,3 9,8 18 10 39 21 E 1024,1 19 60 0,0
31.03.2020 16:00:00 11,1 -1,3 15,0 8,2 9,8 19 11 38 21 ENE 1024,8 20 57 0,0
31.03.2020 15:00:00 10,5 -0,6 12,4 8,1 9,8 16 9 37 20 NE 1025,5 20 47 0,0
31.03.2020 14:00:00 10,1 0,4 11,7 8,0 9,8 17 9 44 24 NE 1025,9 20 35 0,0
31.03.2020 13:00:00 9,1 0,3 10,2 7,9 9,8 19 10 36 20 NE 1026,4 20 50 0,0
31.03.2020 12:00:00 7,7 1,3 11,6 7,8 9,8 18 10 34 18 NE 1026,9 20 55 0,0
31.03.2020 11:00:00 7,1 2,0 7,1 7,8 9,8 16 8 31 17 NE 1027,0 16 60 0,0
31.03.2020 10:00:00 5,5 2,0 2,9 7,9 9,8 13 7 27 14 NE 1027,1 18 60 0,0
31.03.2020 09:00:00 2,9 1,4 -0,3 7,9 9,8 9 5 18 10 NE 1027,0 12 60 0,0
31.03.2020 08:00:00 0,7 -0,2 -0,7 7,9 9,8 7 4 13 7 NNE 1026,8 8 1 0,0
31.03.2020 07:00:00 1,3 0,3 0,2 8,0 9,8 10 5 20 11 NNE 1026,3 12 0 0,0
31.03.2020 06:00:00 1,5 0,2 0,3 8,0 9,8 11 6 21 11 NNE 1026,1 14 0 0,0
31.03.2020 05:00:00 1,4 -0,1 0,3 8,1 9,8 11 6 19 10 NNE 1026,1 14 0 0,0
31.03.2020 04:00:00 1,8 0,0 0,8 8,1 9,9 10 5 21 11 NNE 1026,3 17 0 0,0
31.03.2020 03:00:00 2,5 0,1 0,9 8,1 9,8 11 6 19 10 NNE 1026,5 19 0 0,0
31.03.2020 02:00:00 3,1 -0,5 1,6 8,2 9,9 11 6 19 11 NNE 1026,6 20 0 0,0
31.03.2020 01:00:00 3,4 -1,4 1,9 8,2 9,9 13 7 21 11 NNE 1026,7 20 0 0,0
31.03.2020 00:00:00 4,0 -2,0 2,5 8,2 9,9 11 6 26 14 NNE 1026,5 20 0 0,0
30.03.2020 23:00:00 4,7 -2,4 3,3 8,2 9,8 13 7 27 15 NNE 1026,3 20 0 0,0
30.03.2020 22:00:00 5,0 -2,8 3,2 8,2 9,8 12 7 21 12 NNE 1026,3 20 0 0,0
30.03.2020 21:00:00 5,9 -4,3 3,9 8,2 9,9 10 6 39 21 NE 1025,7 20 0 0,0
30.03.2020 20:00:00 7,8 -6,4 6,4 8,1 9,8 19 10 44 24 ENE 1025,2 20 41 0,0
30.03.2020 19:00:00 8,7 -6,7 10,4 8,1 9,9 20 11 44 24 NE 1024,9 20 60 0,0
30.03.2020 18:00:00 9,0 -6,8 13,4 8,1 9,9 22 12 49 26 NE 1024,9 20 60 0,0
30.03.2020 17:00:00 8,9 -8,7 13,9 7,9 9,8 29 16 53 29 NE 1025,4 20 60 0,0
30.03.2020 16:00:00 8,8 -9,2 14,6 7,9 9,8 23 12 46 25 NE 1025,9 19 60 0,0
30.03.2020 15:00:00 8,0 -9,4 13,7 7,8 9,9 21 11 50 27 NE 1027,0 20 60 0,0
30.03.2020 14:00:00 7,2 -12,1 12,3 7,8 9,9 22 12 51 28 NE 1027,7 19 60 0,0
30.03.2020 13:00:00 5,9 -11,7 10,2 7,8 9,9 27 15 50 27 NE 1028,4 20 60 0,0
30.03.2020 12:00:00 4,2 -10,3 7,7 7,8 9,9 24 13 49 26 NE 1029,1 19 60 0,0
30.03.2020 11:00:00 3,3 -9,4 1,2 7,9 9,9 23 13 52 28 NE 1029,9 20 60 0,0
30.03.2020 10:00:00 1,5 -8,3 -0,2 7,9 9,9 25 13 50 27 NNE 1030,1 20 60 0,0
30.03.2020 09:00:00 0,2 -8,5 -1,6 8,0 9,9 23 12 45 24 NNE 1030,2 20 58 0,0
30.03.2020 08:00:00 -0,8 -8,7 -1,9 8,1 9,9 19 11 34 19 NNE 1029,9 20 0 0,0
30.03.2020 07:00:00 -0,6 -8,3 -1,5 8,2 9,9 20 11 36 19 NNE 1029,7 20 0 0,0
30.03.2020 06:00:00 -0,3 -8,0 -1,2 8,2 9,9 20 11 42 23 NNE 1029,6 20 0 0,0
30.03.2020 05:00:00 0,3 -7,7 -0,6 8,3 9,9 26 14 49 27 NNE 1029,6 20 0 0,0
30.03.2020 04:00:00 0,6 -7,4 -0,3 8,4 9,9 24 13 44 24 NNE 1029,7 20 0 0,0
30.03.2020 03:00:00 1,1 -7,4 0,3 8,5 9,9 26 14 42 23 NNE 1030,0 20 0 0,0
30.03.2020 02:00:00 2,0 -7,1 1,2 8,5 9,9 26 14 47 26 NNE 1030,3 20 0 0,0
30.03.2020 01:00:00 2,9 -6,8 2,3 8,6 9,9 28 15 51 27 NNE 1030,2 20 0 0,0
30.03.2020 00:00:00 3,2 -6,8 2,3 8,7 9,9 29 15 54 29 NNE 1030,2 20 0 0,0
29.03.2020 23:00:00 3,8 -6,5 3,0 8,7 9,9 32 17 59 32 NNE 1029,9 20 0 0,0
29.03.2020 22:00:00 4,8 -6,4 4,2 8,8 9,9 30 16 63 34 NNE 1029,8 20 0 0,0
29.03.2020 21:00:00 5,1 -6,2 4,3 8,8 9,9 24 13 60 32 NNE 1029,3 20 0 0,0
29.03.2020 20:00:00 5,7 -6,6 5,0 8,8 9,9 22 12 59 32 NNE 1028,8 20 7 0,0
29.03.2020 19:00:00 6,6 -7,1 6,5 8,8 9,9 34 18 62 34 NNE 1028,2 20 8 0,0
29.03.2020 18:00:00 7,6 -6,9 7,0 8,8 9,9 30 16 60 32 NNE 1027,6 19 10 0,0
29.03.2020 17:00:00 7,1 -5,6 6,9 8,8 9,9 29 16 60 33 NNE 1027,8 20 19 0,0
29.03.2020 16:00:00 7,4 -5,0 7,6 8,8 9,9 29 16 57 31 NNE 1027,7 20 17 0,0
29.03.2020 15:00:00 7,6 -3,9 8,8 8,8 9,9 32 18 68 37 NNE 1027,9 20 22 0,0
29.03.2020 14:00:00 7,6 -5,5 7,4 8,8 9,9 25 14 54 29 NNE 1028,0 20 21 0,0
29.03.2020 13:00:00 6,6 -2,8 6,8 8,8 9,9 32 17 49 26 NNE 1028,3 20 16 0,0
29.03.2020 12:00:00 7,0 -1,7 6,8 8,8 9,9 27 15 51 28 NNE 1028,1 20 30 0,0
29.03.2020 11:00:00 5,6 -3,0 4,8 8,9 9,9 31 17 55 30 NNE 1028,4 20 53 0,0
29.03.2020 10:00:00 5,2 -3,4 3,9 8,9 9,9 27 15 54 29 NNE 1028,3 19 54 0,0
29.03.2020 09:00:00 4,2 -1,8 3,6 9,0 9,9 25 13 45 24 NNE 1027,9 18 15 0,0
29.03.2020 08:00:00 3,9 -2,1 3,6 9,0 9,9 27 14 52 28 NNE 1027,6 20 0 0,0
29.03.2020 07:00:00 4,5 -1,7 4,1 9,1 9,9 27 15 54 29 NNE 1027,0 20 0 0,0
29.03.2020 06:00:00 4,6 -0,6 4,1 9,2 9,9 24 13 53 29 NNE 1026,5 20 0 0,0
29.03.2020 05:00:00 5,2 -1,1 3,9 9,2 9,9 25 13 49 26 NNE 1026,4 20 0 0,0
29.03.2020 04:00:00 4,8 0,9 3,9 9,3 9,9 22 12 42 23 NNE 1026,1 20 0 0,0
29.03.2020 03:00:00 5,0 1,3 4,3 9,4 9,9 24 13 46 25 NNE 1026,0 20 0 0,0
29.03.2020 02:00:00 5,9 2,0 5,5 9,4 9,9 27 14 59 32 NNE 1025,6 20 0 0,0
29.03.2020 01:00:00 - - - - - - - - - - - - - -

tt = Température de l'air
td = dewpoint
tt 5cm = Température de l'air 5cm
tt -20cm = Température de l'air -20cm
tt -100cm = Température de l'air -100cm
ff = Vitesse du vent
fx = gusts
dd = Direction du vent
ppp = reduced air pressure
vv = visibility
sd = Ensoleillement
rr = Quantités de précipitations

stations d'obs. à proximité